WGS F9 (USA 275)

Last updated on Tue Sep 16 2025 00:02:49 GMT+0000 (Coordinated Universal Time)

1 42075U 17016A 25258.40045010 .00000000 00000+0 00000+0 0 9997 2 42075 0.0189 161.1442 0000681 74.1804 251.4367 1.00268822 31142
UTC large
Height (km)
Speed (km/s)
/
Latitude / Longitude
Inclination (degrees)
Orbital Period (minutes)
Azimuth
Elevation
Range (km)
Doppler Factor

Next 0 passes for location: London (51.5072 / 0.1276)

Sorry there are no passes over London.